QPF
0.08 0.07 0.06 0.06 0.06 0.06 0.06 0.06 0.07 0.07 0.05 0.03 0.02 0.02 0.01 0.01 0.01 0.01 0.00 0.00 0.00 0.00 0.01 0.01 0.01 0.01 0.01 0.02 0.02 0.02 0.01 0.01 0.01 0.01 0.02 0.02 0.02 0.03
0.09 0.09 0.09 0.08 0.07 0.07 0.07 0.07 0.07 0.07 0.07 0.04 0.03 0.03 0.03 0.02 0.02 0.01 0.01 0.01 0.01 0.01 0.01 0.01 0.02 0.01 0.01 0.01 0.02 0.02 0.02 0.01 0.01 0.01 0.01 0.02 0.02 0.02
0.08 0.09 0.10 0.10 0.09 0.09 0.08 0.07 0.07 0.07 0.07 0.06 0.05 0.05 0.04 0.03 0.03 0.02 0.01 0.01 0.01 0.02 0.02 0.02 0.02 0.02 0.02 0.02 0.02 0.02 0.02 0.02 0.02 0.02 0.02 0.02 0.02 0.02
0.05 0.06 0.09 0.10 0.10 0.10 0.09 0.09 0.08 0.07 0.06 0.05 0.05 0.05 0.05 0.04 0.03 0.03 0.02 0.02 0.02 0.02 0.02 0.02 0.02 0.02 0.02 0.02 0.02 0.02 0.02 0.02 0.02 0.02 0.02 0.02 0.02 0.02
0.04 0.04 0.05 0.07 0.09 0.10 0.10 0.09 0.08 0.07 0.06 0.05 0.05 0.05 0.05 0.04 0.03 0.03 0.03 0.03 0.02 0.02 0.02 0.01 0.02 0.02 0.02 0.02 0.02 0.02 0.02 0.02 0.02 0.02 0.02 0.01 0.02 0.02
0.05 0.05 0.04 0.04 0.05 0.06 0.08 0.08 0.07 0.06 0.05 0.05 0.04 0.04 0.04 0.04 0.03 0.03 0.03 0.03 0.02 0.02 0.02 0.02 0.01 0.01 0.01 0.02 0.02 0.02 0.02 0.02 0.02 0.02 0.02 0.02 0.01 0.01
0.05 0.06 0.06 0.05 0.04 0.04 0.05 0.06 0.06 0.05 0.04 0.04 0.04 0.04 0.04 0.04 0.04 0.03 0.03 0.02 0.02 0.02 0.02 0.02 0.02 0.02 0.02 0.02 0.02 0.02 0.02 0.02 0.02 0.02 0.01 0.01 0.01 0.01
0.05 0.06 0.06 0.07 0.06 0.05 0.05 0.05 0.04 0.04 0.04 0.03 0.03 0.04 0.03 0.03 0.03 0.03 0.03 0.03 0.03 0.02 0.02 0.02 0.02 0.02 0.02 0.02 0.03 0.02 0.02 0.02 0.02 0.02 0.02 0.02 0.01 0.01
0.04 0.05 0.06 0.06 0.07 0.06 0.06 0.06 0.05 0.05 0.04 0.03 0.03 0.03 0.03 0.03 0.03 0.03 0.03 0.03 0.03 0.03 0.02 0.02 0.02 0.02 0.01 0.02 0.02 0.02 0.01 0.01 0.02 0.02 0.02 0.02 0.01 0.01
0.05 0.05 0.05 0.05 0.06 0.06 0.06 0.07 0.06 0.05 0.04 0.03 0.02 0.03 0.03 0.03 0.03 0.03 0.03 0.04 0.04 0.03 0.03 0.03 0.02 0.02 0.01 0.01 0.02 0.02 0.01 0.01 0.01 0.01 0.01 0.01 0.01 0.01
0.06 0.06 0.06 0.05 0.06 0.06 0.06 0.06 0.06 0.06 0.05 0.04 0.03 0.03 0.03 0.03 0.03 0.03 0.03 0.03 0.04 0.03 0.03 0.03 0.02 0.02 0.02 0.02 0.01 0.01 0.01 0.01 0.01 0.01 0.01 0.01 0.01 0.01
0.06 0.06 0.06 0.06 0.06 0.07 0.06 0.06 0.05 0.05 0.05 0.05 0.04 0.03 0.03 0.03 0.03 0.03 0.03 0.03 0.03 0.03 0.02 0.02 0.02 0.02 0.02 0.02 0.01 0.01 0.01 0.01 0.01 0.01 0.00 0.01 0.01 0.01
0.07 0.07 0.07 0.06 0.06 0.06 0.06 0.05 0.05 0.05 0.04 0.04 0.04 0.03 0.03 0.02 0.02 0.02 0.02 0.02 0.02 0.02 0.01 0.01 0.02 0.02 0.02 0.02 0.02 0.01 0.01 0.01 0.01 0.01 0.01 0.01 0.01 0.01
0.07 0.07 0.07 0.07 0.07 0.06 0.06 0.05 0.05 0.05 0.05 0.05 0.05 0.04 0.03 0.02 0.02 0.02 0.02 0.01 0.01 0.01 0.01 0.01 0.02 0.02 0.02 0.02 0.02 0.02 0.02 0.01 0.01 0.01 0.01 0.01 0.01 0.01
0.06 0.06 0.06 0.07 0.07 0.07 0.06 0.06 0.05 0.04 0.04 0.04 0.04 0.03 0.02 0.02 0.02 0.02 0.03 0.02 0.02 0.02 0.02 0.02 0.02 0.02 0.02 0.02 0.02 0.02 0.03 0.02 0.02 0.01 0.01 0.01 0.01 0.01
0.05 0.06 0.06 0.06 0.07 0.07 0.07 0.06 0.05 0.04 0.03 0.03 0.03 0.03 0.02 0.02 0.02 0.02 0.03 0.03 0.03 0.03 0.02 0.02 0.02 0.02 0.03 0.02 0.02 0.02 0.02 0.03 0.03 0.02 0.02 0.01 0.01 0.01
0.06 0.06 0.06 0.06 0.07 0.07 0.06 0.05 0.05 0.05 0.04 0.04 0.04 0.03 0.03 0.03 0.03 0.03 0.03 0.03 0.03 0.03 0.02 0.02 0.02 0.02 0.03 0.03 0.03 0.03 0.03 0.03 0.03 0.03 0.02 0.02 0.01 0.01
0.07 0.07 0.06 0.06 0.06 0.05 0.05 0.05 0.05 0.05 0.05 0.04 0.04 0.04 0.04 0.04 0.04 0.03 0.03 0.03 0.03 0.02 0.02 0.02 0.02 0.02 0.03 0.03 0.03 0.03 0.03 0.03 0.03 0.03 0.02 0.02 0.01 0.01
0.05 0.05 0.05 0.05 0.05 0.05 0.05 0.04 0.04 0.04 0.04 0.05 0.05 0.04 0.04 0.04 0.04 0.04 0.04 0.03 0.03 0.02 0.02 0.01 0.02 0.02 0.02 0.02 0.02 0.02 0.02 0.02 0.03 0.03 0.03 0.02 0.01 0.01
0.05 0.04 0.04 0.04 0.05 0.05 0.05 0.05 0.04 0.05 0.05 0.05 0.05 0.05 0.04 0.04 0.04 0.04 0.03 0.03 0.03 0.03 0.02 0.02 0.01 0.02 0.02 0.02 0.02 0.02 0.02 0.02 0.02 0.03 0.03 0.02 0.02 0.02
0.04 0.04 0.04 0.04 0.04 0.05 0.05 0.05 0.05 0.05 0.05 0.05 0.05 0.05 0.05 0.04 0.04 0.04 0.03 0.03 0.03 0.03 0.02 0.02 0.02 0.01 0.02 0.02 0.02 0.02 0.02 0.02 0.02 0.02 0.02 0.02 0.02 0.02
0.04 0.04 0.04 0.04 0.04 0.05 0.05 0.05 0.05 0.05 0.05 0.05 0.05 0.04 0.04 0.04 0.04 0.03 0.03 0.03 0.03 0.03 0.02 0.02 0.02 0.02 0.02 0.03 0.02 0.02 0.02 0.03 0.03 0.03 0.02 0.02 0.02 0.02
0.04 0.04 0.04 0.04 0.04 0.04 0.05 0.05 0.05 0.05 0.04 0.04 0.04 0.04 0.04 0.04 0.03 0.03 0.03 0.03 0.03 0.03 0.03 0.03 0.03 0.03 0.03 0.02 0.02 0.03 0.03 0.03 0.03 0.03 0.02 0.02 0.01 0.01
MSLP
1015.34 1015.99 1016.69 1017.41 1018.12 1018.79 1019.40 1019.95 1020.45 1020.91 1021.34 1021.78 1022.24 1022.73 1023.26 1023.81 1024.38 1024.96 1025.53 1026.08 1026.62 1027.12 1027.60 1028.06 1028.50 1028.93 1029.33 1029.69 1030.01 1030.27 1030.46 1030.59 1030.65 1030.65 1030.62 1030.57 1030.51 1030.48
1014.47 1015.02 1015.67 1016.38 1017.12 1017.84 1018.52 1019.14 1019.70 1020.22 1020.69 1021.16 1021.63 1022.12 1022.65 1023.21 1023.80 1024.40 1025.00 1025.58 1026.14 1026.67 1027.18 1027.66 1028.12 1028.57 1028.99 1029.40 1029.77 1030.10 1030.37 1030.58 1030.73 1030.82 1030.86 1030.87 1030.87 1030.87
1013.74 1014.14 1014.69 1015.35 1016.08 1016.82 1017.55 1018.24 1018.88 1019.46 1019.99 1020.50 1021.01 1021.53 1022.07 1022.64 1023.24 1023.85 1024.46 1025.05 1025.62 1026.17 1026.68 1027.17 1027.63 1028.09 1028.53 1028.96 1029.37 1029.75 1030.10 1030.39 1030.63 1030.81 1030.94 1031.02 1031.08 1031.13
1013.15 1013.39 1013.80 1014.37 1015.04 1015.78 1016.54 1017.28 1017.98 1018.63 1019.24 1019.81 1020.36 1020.91 1021.47 1022.06 1022.66 1023.27 1023.88 1024.47 1025.04 1025.58 1026.09 1026.57 1027.04 1027.50 1027.95 1028.40 1028.84 1029.27 1029.67 1030.04 1030.37 1030.63 1030.85 1031.02 1031.16 1031.27
1012.70 1012.76 1013.02 1013.46 1014.05 1014.75 1015.51 1016.28 1017.04 1017.76 1018.43 1019.06 1019.66 1020.24 1020.83 1021.42 1022.02 1022.62 1023.22 1023.80 1024.37 1024.90 1025.40 1025.89 1026.35 1026.81 1027.27 1027.74 1028.21 1028.68 1029.14 1029.58 1029.98 1030.33 1030.64 1030.90 1031.11 1031.30
1012.37 1012.25 1012.35 1012.66 1013.15 1013.78 1014.52 1015.29 1016.08 1016.84 1017.57 1018.25 1018.89 1019.50 1020.10 1020.69 1021.29 1021.88 1022.46 1023.04 1023.59 1024.12 1024.63 1025.12 1025.60 1026.07 1026.55 1027.04 1027.54 1028.05 1028.55 1029.04 1029.51 1029.94 1030.33 1030.67 1030.97 1031.25
1012.10 1011.84 1011.79 1011.97 1012.34 1012.90 1013.58 1014.33 1015.12 1015.91 1016.66 1017.38 1018.04 1018.68 1019.28 1019.87 1020.46 1021.03 1021.61 1022.17 1022.73 1023.27 1023.79 1024.30 1024.80 1025.30 1025.81 1026.33 1026.86 1027.40 1027.94 1028.48 1029.00 1029.50 1029.95 1030.38 1030.76 1031.12
1011.83 1011.46 1011.30 1011.35 1011.63 1012.09 1012.70 1013.42 1014.18 1014.96 1015.73 1016.45 1017.14 1017.78 1018.38 1018.97 1019.54 1020.11 1020.67 1021.24 1021.81 1022.36 1022.92 1023.46 1024.01 1024.55 1025.09 1025.65 1026.21 1026.78 1027.35 1027.92 1028.48 1029.03 1029.55 1030.04 1030.50 1030.93
1011.51 1011.07 1010.83 1010.79 1010.97 1011.34 1011.88 1012.53 1013.26 1014.02 1014.77 1015.49 1016.17 1016.81 1017.42 1018.00 1018.57 1019.13 1019.70 1020.28 1020.86 1021.45 1022.04 1022.64 1023.23 1023.82 1024.41 1025.00 1025.59 1026.19 1026.78 1027.38 1027.97 1028.55 1029.12 1029.66 1030.19 1030.70
1011.10 1010.63 1010.34 1010.23 1010.33 1010.62 1011.08 1011.67 1012.34 1013.05 1013.78 1014.49 1015.17 1015.81 1016.41 1017.00 1017.57 1018.14 1018.72 1019.32 1019.93 1020.56 1021.19 1021.83 1022.48 1023.12 1023.75 1024.38 1025.00 1025.61 1026.23 1026.84 1027.45 1028.05 1028.66 1029.25 1029.84 1030.41
1010.59 1010.12 1009.80 1009.64 1009.67 1009.89 1010.27 1010.78 1011.39 1012.06 1012.76 1013.45 1014.13 1014.78 1015.40 1015.99 1016.58 1017.17 1017.77 1018.39 1019.03 1019.69 1020.37 1021.05 1021.74 1022.42 1023.09 1023.75 1024.39 1025.02 1025.65 1026.27 1026.90 1027.52 1028.15 1028.79 1029.43 1030.06
1009.99 1009.54 1009.20 1009.02 1008.99 1009.13 1009.43 1009.87 1010.42 1011.04 1011.70 1012.38 1013.06 1013.73 1014.38 1015.00 1015.62 1016.24 1016.86 1017.50 1018.17 1018.86 1019.56 1020.27 1020.99 1021.70 1022.40 1023.08 1023.74 1024.39 1025.02 1025.65 1026.29 1026.93 1027.59 1028.26 1028.94 1029.63
1009.33 1008.90 1008.57 1008.35 1008.27 1008.34 1008.56 1008.92 1009.40 1009.97 1010.61 1011.28 1011.98 1012.67 1013.36 1014.02 1014.68 1015.33 1015.98 1016.65 1017.33 1018.03 1018.74 1019.47 1020.20 1020.93 1021.64 1022.34 1023.01 1023.67 1024.32 1024.96 1025.60 1026.26 1026.94 1027.65 1028.37 1029.11
1008.63 1008.24 1007.91 1007.66 1007.52 1007.51 1007.65 1007.93 1008.34 1008.86 1009.48 1010.15 1010.87 1011.60 1012.33 1013.05 1013.75 1014.44 1015.12 1015.80 1016.48 1017.18 1017.90 1018.62 1019.35 1020.08 1020.81 1021.51 1022.20 1022.87 1023.53 1024.19 1024.85 1025.52 1026.22 1026.95 1027.70 1028.48
1007.90 1007.55 1007.22 1006.94 1006.74 1006.66 1006.71 1006.91 1007.25 1007.73 1008.32 1009.01 1009.75 1010.52 1011.30 1012.07 1012.82 1013.54 1014.24 1014.93 1015.61 1016.30 1017.00 1017.72 1018.44 1019.17 1019.90 1020.62 1021.32 1022.01 1022.69 1023.36 1024.04 1024.73 1025.44 1026.18 1026.96 1027.77
1007.10 1006.79 1006.47 1006.16 1005.92 1005.77 1005.74 1005.87 1006.15 1006.58 1007.16 1007.84 1008.61 1009.43 1010.25 1011.07 1011.86 1012.61 1013.33 1014.02 1014.70 1015.37 1016.06 1016.76 1017.47 1018.21 1018.95 1019.68 1020.41 1021.13 1021.83 1022.52 1023.22 1023.92 1024.64 1025.40 1026.18 1027.01
1006.14 1005.89 1005.59 1005.28 1005.01 1004.81 1004.72 1004.79 1005.02 1005.42 1005.98 1006.67 1007.46 1008.30 1009.17 1010.02 1010.84 1011.62 1012.35 1013.04 1013.71 1014.38 1015.06 1015.76 1016.48 1017.23 1017.99 1018.76 1019.52 1020.28 1021.01 1021.73 1022.44 1023.15 1023.88 1024.63 1025.42 1026.24
1004.94 1004.76 1004.52 1004.23 1003.95 1003.73 1003.62 1003.65 1003.86 1004.24 1004.79 1005.48 1006.29 1007.15 1008.04 1008.92 1009.76 1010.55 1011.29 1011.99 1012.67 1013.34 1014.02 1014.74 1015.49 1016.27 1017.08 1017.90 1018.71 1019.51 1020.29 1021.04 1021.77 1022.49 1023.21 1023.96 1024.73 1025.54
1003.42 1003.34 1003.16 1002.93 1002.69 1002.49 1002.39 1002.42 1002.63 1003.01 1003.57 1004.27 1005.08 1005.97 1006.87 1007.76 1008.61 1009.41 1010.16 1010.87 1011.56 1012.26 1012.97 1013.73 1014.52 1015.37 1016.24 1017.12 1018.01 1018.87 1019.69 1020.48 1021.24 1021.97 1022.69 1023.42 1024.17 1024.96
1001.55 1001.58 1001.50 1001.36 1001.19 1001.06 1001.01 1001.09 1001.33 1001.74 1002.31 1003.03 1003.85 1004.74 1005.65 1006.54 1007.40 1008.21 1008.97 1009.70 1010.42 1011.15 1011.92 1012.74 1013.61 1014.53 1015.49 1016.46 1017.43 1018.36 1019.24 1020.08 1020.86 1021.60 1022.32 1023.04 1023.78 1024.55
999.40 999.53 999.57 999.54 999.48 999.45 999.49 999.65 999.95 1000.42 1001.03 1001.76 1002.60 1003.49 1004.39 1005.28 1006.14 1006.95 1007.73 1008.49 1009.26 1010.05 1010.89 1011.79 1012.76 1013.78 1014.84 1015.91 1016.97 1017.98 1018.93 1019.81 1020.62 1021.38 1022.11 1022.82 1023.55 1024.31
997.09 997.31 997.46 997.55 997.62 997.71 997.88 998.15 998.54 999.08 999.74 1000.50 1001.35 1002.24 1003.14 1004.03 1004.88 1005.70 1006.50 1007.30 1008.12 1008.99 1009.92 1010.92 1011.99 1013.12 1014.29 1015.46 1016.60 1017.69 1018.71 1019.64 1020.49 1021.28 1022.02 1022.74 1023.47 1024.22
994.82 995.11 995.34 995.55 995.75 995.98 996.28 996.67 997.17 997.78 998.50 999.30 1000.17 1001.06 1001.95 1002.82 1003.68 1004.51 1005.34 1006.18 1007.06 1008.01 1009.03 1010.13 1011.31 1012.55 1013.82 1015.08 1016.31 1017.47 1018.55 1019.53 1020.42 1021.24 1022.00 1022.74 1023.48 1024.25
Thickness
5483 5485 5487 5490 5491 5493 5495 5498 5500 5502 5503 5501 5500 5499 5499 5500 5500 5501 5502 5503 5503 5504 5505 5506 5507 5508 5509 5510 5511 5511 5512 5513 5514 5515 5516 5516 5517 5518
5471 5474 5475 5477 5479 5482 5484 5486 5490 5492 5493 5492 5490 5489 5488 5489 5490 5490 5491 5492 5492 5493 5494 5494 5496 5497 5498 5498 5499 5500 5500 5501 5502 5503 5504 5504 5505 5506
5459 5462 5464 5466 5468 5470 5472 5475 5477 5479 5480 5479 5478 5477 5476 5477 5477 5478 5479 5480 5481 5481 5481 5482 5484 5485 5485 5486 5487 5487 5488 5488 5489 5490 5491 5492 5493 5494
5448 5450 5452 5454 5456 5458 5460 5464 5466 5468 5468 5469 5467 5465 5465 5465 5466 5466 5467 5468 5468 5469 5469 5470 5471 5472 5472 5474 5474 5475 5475 5476 5477 5477 5479 5480 5481 5481
5436 5439 5441 5443 5445 5447 5449 5452 5454 5455 5457 5458 5457 5454 5453 5453 5453 5454 5454 5455 5455 5456 5456 5457 5458 5458 5459 5460 5461 5461 5462 5464 5464 5465 5465 5467 5468 5468
5424 5427 5429 5432 5434 5436 5438 5440 5442 5443 5444 5445 5444 5443 5442 5441 5441 5442 5442 5442 5443 5443 5443 5444 5445 5445 5446 5447 5448 5448 5449 5449 5450 5451 5452 5454 5454 5455
5411 5414 5417 5420 5422 5424 5427 5429 5430 5431 5431 5433 5433 5431 5431 5430 5431 5431 5430 5430 5430 5430 5431 5431 5432 5433 5433 5433 5433 5434 5435 5435 5436 5437 5438 5440 5441 5441
5399 5402 5404 5406 5408 5411 5413 5415 5416 5417 5420 5422 5422 5422 5422 5421 5420 5419 5418 5419 5419 5419 5417 5418 5418 5419 5420 5420 5420 5420 5421 5421 5422 5423 5424 5425 5426 5427
5386 5389 5392 5394 5396 5397 5399 5400 5401 5403 5406 5410 5411 5412 5411 5411 5409 5407 5407 5407 5408 5407 5404 5406 5405 5406 5406 5406 5406 5406 5406 5406 5407 5408 5409 5410 5411 5412
5373 5377 5379 5383 5384 5385 5386 5388 5390 5391 5393 5395 5399 5400 5398 5396 5396 5395 5394 5392 5392 5391 5391 5392 5393 5392 5392 5392 5392 5392 5392 5392 5392 5393 5394 5395 5396 5397
5360 5363 5366 5370 5373 5373 5374 5376 5377 5378 5378 5380 5382 5383 5383 5382 5381 5379 5379 5379 5379 5378 5377 5378 5379 5378 5378 5378 5378 5378 5377 5377 5378 5378 5379 5380 5381 5382
5348 5350 5353 5357 5359 5359 5361 5363 5364 5366 5366 5367 5367 5368 5368 5368 5367 5367 5368 5368 5368 5367 5365 5364 5364 5362 5363 5364 5363 5363 5363 5363 5363 5364 5365 5366 5366 5367
5335 5339 5342 5343 5346 5347 5348 5349 5352 5352 5352 5353 5354 5354 5354 5354 5354 5354 5354 5355 5357 5357 5354 5350 5349 5349 5350 5349 5348 5348 5348 5348 5348 5349 5350 5351 5352 5352
5324 5328 5330 5331 5333 5334 5335 5336 5336 5337 5338 5340 5340 5341 5341 5341 5341 5340 5339 5340 5341 5343 5340 5337 5336 5336 5336 5335 5335 5334 5333 5333 5334 5335 5336 5336 5337 5337
5313 5315 5317 5318 5319 5320 5322 5322 5323 5324 5326 5327 5329 5329 5329 5328 5326 5325 5324 5324 5325 5325 5324 5323 5323 5322 5322 5323 5322 5321 5320 5320 5320 5321 5322 5322 5323 5323
5299 5301 5302 5304 5305 5308 5309 5309 5310 5312 5314 5315 5316 5315 5314 5313 5312 5312 5312 5312 5310 5310 5309 5309 5308 5308 5308 5308 5308 5308 5308 5308 5308 5307 5308 5308 5309 5309
5287 5288 5290 5291 5293 5295 5297 5298 5299 5299 5300 5301 5301 5301 5301 5300 5300 5299 5299 5299 5299 5298 5296 5295 5294 5294 5294 5294 5294 5295 5295 5295 5295 5294 5294 5296 5296 5297
5274 5278 5279 5280 5282 5283 5285 5286 5287 5287 5288 5288 5289 5289 5288 5289 5288 5287 5287 5287 5287 5287 5285 5284 5282 5281 5280 5280 5281 5283 5283 5283 5283 5282 5283 5284 5286 5285
5262 5266 5268 5269 5270 5271 5272 5274 5275 5275 5275 5276 5276 5277 5277 5276 5276 5276 5275 5275 5275 5274 5273 5272 5272 5272 5272 5273 5272 5269 5271 5271 5271 5272 5272 5273 5274 5275
5251 5254 5256 5257 5258 5259 5260 5261 5262 5262 5262 5264 5265 5265 5265 5265 5265 5265 5264 5264 5264 5262 5261 5261 5261 5261 5262 5263 5261 5259 5258 5259 5260 5261 5261 5261 5262 5262
5238 5240 5242 5244 5245 5246 5248 5249 5250 5250 5251 5252 5253 5253 5253 5253 5253 5253 5253 5253 5252 5251 5251 5252 5251 5249 5247 5247 5248 5248 5247 5247 5248 5248 5249 5250 5251 5253
5224 5226 5228 5230 5231 5233 5235 5236 5237 5238 5239 5240 5241 5241 5241 5241 5242 5242 5242 5242 5242 5241 5240 5239 5237 5236 5237 5238 5239 5238 5238 5237 5237 5237 5237 5239 5240 5244
5210 5213 5215 5216 5218 5221 5223 5224 5225 5226 5227 5228 5228 5229 5229 5230 5230 5231 5231 5230 5230 5229 5228 5227 5226 5226 5226 5227 5227 5228 5227 5227 5227 5228 5229 5229 5230 5232